Retour au catalogue

MIDAS 4 DEB

ActifPO
NORAD 195·DEBRIS·🇺🇸 United States

Lancé Oct 21, 1961 depuis Vandenberg Space Force Base

Loading…

Prochains Passages (prochaines 24 heures)

TLE

FraisSource: Space-Track

Époque: Sep 8, 2026, 22:04 UTC

1   195U 61028D   26251.91987927 -.00000003  00000-0  32321-3 0  9998
2   195  95.8493 221.7845 0122143 359.1428   0.9200  8.65620291 50273

Suivez MIDAS 4 DEB en temps réel avec AllMySat

Download on the App Store